OPS 4682 DEB, 39609

Orbit data source: Space-Track

OPS 4682 DEB, 39609 is space debris in LEO originally from a launch on Sat, 03 Apr 1965 UTC launched from the Air Force Western Test Range (AFWTR). Debris objects in space refer to the collection of defunct objects orbiting the Earth. Examples of debris include non-operational satellites, rocket bodies, and fragments generated from explosions, collisions, or faulty payload assembly.

Loading next visibility...
Identifier
39609, 1965-027FS
Orbit
LEO
Country
Flag of USUS
Related business
Manufacturer
Unknown
Mission
Spacecraft
Bus & Motor
Unknown
Mass
Unknown
Launch date (UTC)
1965-04-03 (61 years ago)
Launch vehicle
Unknown
Launch site
Air Force Western Test Range (AFWTR)
Object type
Payload
Rocket body
Debris
Shape & HBR
Unknown shape, 0.1 m
Radar Cross Section
Small (<0.1 m²)

Expand to show TLE details & history
Last TLE update: 8 hours ago

TLE from 8 hours ago
0 OPS 4682 DEB
1 39609U 65027FS  26104.22048834  .00000627  00000-0  21130-2 0  9995
2 39609  90.2563  13.0173 0024544 221.4820 294.3634 12.98137311588005
Epoch: 2026-04-14T05:17Z
TLE epoch observation values (Epoch: 2026-04-14T05:17:30.192Z)
Latitude
24.43344°
Longitude
-88.6425°
Altitude
1,264.638 km
Speed
7.229 km/s
True Right ascension
12h 52m 31s
True Declination
24° 18' 46"
Sunlit
Object was in full shadow at epoch
Visualization orbit readout
Latitude
Unknown
Longitude
Unknown
Altitude
Unknown
Speed
Unknown
Apparent Right ascension
Unknown
Apparent Declination
Unknown
Sunlit
N/A
Visualization observer readout
Local Sidereal Time
19:59:47
Azimuth
Unknown
Elevation
Unknown
Doppler factor
Unknown
Orbital elements
Apogee altitude
1,285.286 km
Perigee altitude
1,247.76 km
Semi-major axis
7,644.66 km
Eccentricity
0.00245
Inclination
90.2563°
RAAN
13.0173°
Arg. of periapsis
221.482°
True anomaly
294.10687°
Mean anomaly
294.3634°
Eccentric anomaly
294.23517°
Mean motion
3.24718 °/min
Orbital period
110.87 mins
BSTAR
0.002113
Loading maneuver chart data...
Computing Atmospheric mass density...
Loading historical data...
Loading historical data...
Loading historical data...
Loading historical data...
Loading historical data...
Loading historical data...
Loading historical data...

Documentation

Showing up to 5 results
|